Previsão horária em Abashevo

Hoje, 30 Setembro, Quarta-feira

Tempo Temperatura Precipitação Vento Pressão Humidade
00:00 +11°C° 0 mm 4 m/s 755 mmHg 65%
01:00 +11°C° 0 mm 4 m/s 755 mmHg 64%
02:00 +11°C° 0 mm 4 m/s 755 mmHg 62%
03:00 +11°C° 0 mm 3 m/s 755 mmHg 61%
04:00 +10°C° 0 mm 3 m/s 755 mmHg 62%
05:00 +10°C° 0 mm 3 m/s 755 mmHg 63%
06:00 +10°C° 0 mm 3 m/s 754 mmHg 64%
07:00 +11°C° 0 mm 4 m/s 754 mmHg 62%
08:00 +12°C° 0 mm 4 m/s 754 mmHg 59%
09:00 +13°C° 0 mm 5 m/s 754 mmHg 57%
10:00 +14°C° 0 mm 5 m/s 754 mmHg 53%
11:00 +16°C° 0 mm 5 m/s 754 mmHg 50%
12:00 +17°C° 0 mm 5 m/s 754 mmHg 46%
13:00 +17°C° 0 mm 5 m/s 754 mmHg 45%
14:00 +17°C° 0 mm 5 m/s 754 mmHg 45%
15:00 +19°C° 0 mm 4 m/s 754 mmHg 44%
16:00 +18°C° 0 mm 4 m/s 754 mmHg 48%
17:00 +15°C° 0 mm 4 m/s 753 mmHg 52%
18:00 +14°C° 0 mm 3 m/s 753 mmHg 55%
19:00 +14°C° 0 mm 4 m/s 754 mmHg 55%
20:00 +13°C° 0 mm 4 m/s 754 mmHg 55%
21:00 +13°C° 0 mm 4 m/s 754 mmHg 55%
22:00 +12°C° 0 mm 4 m/s 754 mmHg 57%
23:00 +12°C° 0 mm 4 m/s 754 mmHg 59%

Amanhã, 1 Outubro, Quinta-feira

Tempo Temperatura Precipitação Vento Pressão Humidade
00:00 +12°C° 0 mm 4 m/s 754 mmHg 60%
01:00 +11°C° 0 mm 4 m/s 754 mmHg 61%
02:00 +11°C° 0 mm 4 m/s 755 mmHg 61%
03:00 +11°C° 0 mm 4 m/s 755 mmHg 62%
04:00 +10°C° 0 mm 4 m/s 755 mmHg 63%
05:00 +10°C° 0 mm 4 m/s 755 mmHg 65%
06:00 +8°C° 0 mm 4 m/s 755 mmHg 66%
07:00 +11°C° 0 mm 4 m/s 755 mmHg 63%
08:00 +12°C° 0 mm 4 m/s 755 mmHg 60%
09:00 +13°C° 0 mm 4 m/s 755 mmHg 57%
10:00 +15°C° 0 mm 4 m/s 755 mmHg 51%
11:00 +17°C° 0 mm 4 m/s 755 mmHg 45%
12:00 +19°C° 0 mm 5 m/s 755 mmHg 39%
13:00 +19°C° 0 mm 4 m/s 755 mmHg 38%
14:00 +19°C° 0 mm 4 m/s 755 mmHg 38%
15:00 +19°C° 0 mm 4 m/s 755 mmHg 37%
16:00 +18°C° 0 mm 4 m/s 754 mmHg 41%
17:00 +16°C° 0 mm 3 m/s 754 mmHg 46%
18:00 +14°C° 0 mm 3 m/s 754 mmHg 50%
19:00 +13°C° 0 mm 3 m/s 754 mmHg 51%
20:00 +13°C° 0 mm 3 m/s 755 mmHg 52%
21:00 +12°C° 0 mm 3 m/s 755 mmHg 52%
22:00 +12°C° 0 mm 3 m/s 755 mmHg 53%
23:00 +11°C° 0 mm 3 m/s 755 mmHg 55%

Depois de amanhã, 2 Outubro, Sexta-feira

Tempo Temperatura Precipitação Vento Pressão Humidade
00:00 +11°C° 0 mm 3 m/s 755 mmHg 56%
01:00 +11°C° 0 mm 3 m/s 755 mmHg 59%
02:00 +10°C° 0 mm 3 m/s 755 mmHg 62%
03:00 +10°C° 0 mm 3 m/s 755 mmHg 66%
04:00 +10°C° 0 mm 3 m/s 755 mmHg 69%
05:00 +10°C° 0 mm 3 m/s 755 mmHg 73%
06:00 +9°C° 0 mm 3 m/s 755 mmHg 76%
07:00 +11°C° 0 mm 3 m/s 755 mmHg 73%
08:00 +12°C° 0 mm 3 m/s 755 mmHg 69%
09:00 +14°C° 0 mm 4 m/s 755 mmHg 66%
10:00 +15°C° 0 mm 4 m/s 755 mmHg 61%
11:00 +17°C° 0 mm 4 m/s 755 mmHg 56%
12:00 +19°C° 0 mm 4 m/s 755 mmHg 51%
13:00 +19°C° 0 mm 4 m/s 755 mmHg 50%
14:00 +19°C° 0 mm 4 m/s 755 mmHg 49%
15:00 +19°C° 0 mm 4 m/s 755 mmHg 48%
16:00 +18°C° 0 mm 3 m/s 755 mmHg 53%
17:00 +17°C° 0 mm 3 m/s 754 mmHg 58%
18:00 +14°C° 0 mm 3 m/s 754 mmHg 62%
19:00 +14°C° 0 mm 3 m/s 755 mmHg 64%
20:00 +13°C° 0 mm 3 m/s 755 mmHg 65%
21:00 +12°C° 0 mm 3 m/s 755 mmHg 67%
22:00 +13°C° 0 mm 2 m/s 755 mmHg 67%
23:00 +13°C° 0 mm 2 m/s 755 mmHg 68%

3 Outubro, Sábado

Tempo Temperatura Precipitação Vento Pressão Humidade
00:00 +12°C° 0 mm 2 m/s 755 mmHg 69%
01:00 +12°C° 0 mm 2 m/s 755 mmHg 70%
02:00 +12°C° 0 mm 2 m/s 755 mmHg 70%
03:00 +12°C° 0 mm 2 m/s 755 mmHg 71%
04:00 +10°C° 0 mm 3 m/s 755 mmHg 71%
05:00 +10°C° 0 mm 3 m/s 755 mmHg 71%
06:00 +10°C° 0 mm 3 m/s 755 mmHg 71%
07:00 +11°C° 0 mm 3 m/s 755 mmHg 67%
08:00 +12°C° 0 mm 3 m/s 755 mmHg 63%
09:00 +13°C° 0 mm 3 m/s 755 mmHg 59%
10:00 +14°C° 0 mm 3 m/s 755 mmHg 54%
11:00 +17°C° 0 mm 3 m/s 755 mmHg 49%
12:00 +18°C° 0 mm 3 m/s 755 mmHg 44%
13:00 +19°C° 0 mm 3 m/s 755 mmHg 43%
14:00 +19°C° 0 mm 3 m/s 755 mmHg 43%
15:00 +19°C° 0 mm 3 m/s 755 mmHg 42%
16:00 +18°C° 0 mm 2 m/s 755 mmHg 47%
17:00 +16°C° 0 mm 2 m/s 755 mmHg 53%
18:00 +15°C° 0 mm 2 m/s 754 mmHg 58%
19:00 +14°C° 0 mm 2 m/s 755 mmHg 61%
20:00 +13°C° 0 mm 2 m/s 755 mmHg 64%
21:00 +13°C° 0 mm 2 m/s 755 mmHg 67%
22:00 +12°C° 0 mm 2 m/s 755 mmHg 68%
23:00 +12°C° 0 mm 2 m/s 755 mmHg 69%

4 Outubro, Domingo

Tempo Temperatura Precipitação Vento Pressão Humidade
00:00 +12°C° 0 mm 2 m/s 755 mmHg 70%
01:00 +12°C° 0 mm 2 m/s 755 mmHg 71%
02:00 +10°C° 0 mm 2 m/s 755 mmHg 72%
03:00 +10°C° 0 mm 2 m/s 755 mmHg 72%
04:00 +10°C° 0 mm 2 m/s 755 mmHg 73%
05:00 +10°C° 0 mm 2 m/s 755 mmHg 74%
06:00 +10°C° 0 mm 2 m/s 755 mmHg 75%
07:00 +12°C° 0 mm 2 m/s 756 mmHg 72%
08:00 +13°C° 0 mm 2 m/s 756 mmHg 69%
09:00 +13°C° 0 mm 3 m/s 756 mmHg 66%
10:00 +15°C° 0 mm 2 m/s 756 mmHg 62%
11:00 +16°C° 0 mm 2 m/s 756 mmHg 58%
12:00 +17°C° 0 mm 2 m/s 756 mmHg 54%
13:00 +18°C° 0 mm 2 m/s 756 mmHg 53%
14:00 +18°C° 0 mm 3 m/s 756 mmHg 53%
15:00 +18°C° 0 mm 3 m/s 756 mmHg 52%
16:00 +17°C° 0 mm 3 m/s 756 mmHg 57%
17:00 +14°C° 0 mm 3 m/s 756 mmHg 62%
18:00 +14°C° 0 mm 2 m/s 756 mmHg 67%
19:00 +13°C° 0 mm 3 m/s 756 mmHg 69%
20:00 +12°C° 0 mm 3 m/s 756 mmHg 70%
21:00 +11°C° 0 mm 3 m/s 756 mmHg 72%
22:00 +11°C° 0 mm 3 m/s 756 mmHg 72%
23:00 +10°C° 0 mm 3 m/s 756 mmHg 73%

5 Outubro, Segunda-feira

Tempo Temperatura Precipitação Vento Pressão Humidade
00:00 +10°C° 0 mm 3 m/s 757 mmHg 73%
01:00 +10°C° 0 mm 3 m/s 757 mmHg 75%
02:00 +9°C° 0 mm 3 m/s 757 mmHg 76%
03:00 +9°C° 0 mm 3 m/s 757 mmHg 78%
04:00 +9°C° 0 mm 3 m/s 757 mmHg 78%
05:00 +9°C° 0 mm 3 m/s 757 mmHg 79%
06:00 +9°C° 0 mm 3 m/s 757 mmHg 80%
07:00 +10°C° 0 mm 3 m/s 757 mmHg 75%
08:00 +11°C° 0 mm 3 m/s 757 mmHg 70%
09:00 +12°C° 0 mm 3 m/s 757 mmHg 64%
10:00 +13°C° 0 mm 3 m/s 757 mmHg 60%
11:00 +15°C° 0 mm 4 m/s 757 mmHg 56%
12:00 +17°C° 0 mm 4 m/s 757 mmHg 52%
13:00 +17°C° 0 mm 4 m/s 757 mmHg 51%
14:00 +17°C° 0 mm 4 m/s 756 mmHg 50%
15:00 +18°C° 0 mm 3 m/s 756 mmHg 49%
16:00 +17°C° 0 mm 3 m/s 756 mmHg 52%
17:00 +14°C° 0 mm 3 m/s 756 mmHg 55%
18:00 +13°C° 0 mm 3 m/s 755 mmHg 59%
19:00 +13°C° 0 mm 3 m/s 755 mmHg 59%
20:00 +12°C° 0 mm 3 m/s 755 mmHg 59%
21:00 +12°C° 0 mm 3 m/s 755 mmHg 60%
22:00 +12°C° 0 mm 4 m/s 755 mmHg 58%
23:00 +12°C° 0 mm 4 m/s 755 mmHg 57%
Mostrar mais